FW9110 Weather Reports


time (UTC)temp
C
wind
direction
speed
KPH
gust
KPH
rain 1hr
cm
rain 24hr
cm
rain mn
cm
humidity
%
barometer
mb
20260505050841 15 299 0.0 0.0 0.00 0.00 0.00 78 1010.0
20260505050340 15 209 1.6 3.2 0.00 0.00 0.00 79 1009.9
20260505041307 15 302 1.6 3.2 0.00 0.00 0.00 76 1009.8
20260505040804 15 289 0.0 1.6 0.00 0.00 0.00 75 1009.8
20260505040301 16 259 4.8 8.0 0.00 0.00 0.00 75 1009.9
20260505035758 16 306 0.0 0.0 0.00 0.00 0.00 73 1009.6
20260505035254 16 326 1.6 1.6 0.00 0.00 0.00 72 1009.7
20260505034751 16 231 1.6 3.2 0.00 0.00 0.00 71 1009.7
20260505034248 16 287 1.6 3.2 0.00 0.00 0.00 70 1009.6
20260505033744 16 292 3.2 3.2 0.00 0.00 0.00 69 1009.5
20260505033242 16 306 1.6 3.2 0.00 0.00 0.00 69 1009.8
20260505032740 16 298 0.0 0.0 0.00 0.00 0.00 69 1009.8
20260505032235 16 271 1.6 3.2 0.00 0.00 0.00 68 1009.7
20260505031733 16 249 1.6 1.6 0.00 0.00 0.00 67 1009.6
20260505031229 16 311 1.6 1.6 0.00 0.00 0.00 67 1009.8
20260505030726 16 309 0.0 1.6 0.00 0.00 0.00 66 1009.7
20260505030222 16 281 1.6 1.6 0.00 0.00 0.00 66 1009.7
20260505025718 16 280 1.6 3.2 0.00 0.00 0.00 65 1009.7
20260505025217 17 299 1.6 3.2 0.00 0.00 0.00 64 1009.8
20260505024715 17 302 0.0 0.0 0.00 0.00 0.00 64 1009.6
20260505024211 16 306 3.2 4.8 0.00 0.00 0.00 65 1009.5
20260505023709 17 320 1.6 1.6 0.00 0.00 0.00 63 1009.7
20260505023206 17 326 1.6 3.2 0.00 0.00 0.00 63 1009.7
20260505022704 17 323 0.0 1.6 0.00 0.00 0.00 63 1009.7
20260505022200 16 294 1.6 3.2 0.00 0.00 0.00 64 1009.6
20260505021657 16 268 0.0 1.6 0.00 0.00 0.00 65 1009.8
20260505021154 16 300 0.0 1.6 0.00 0.00 0.00 64 1009.8
20260505020649 17 320 0.0 0.0 0.00 0.00 0.00 64 1009.8
20260505020145 17 300 0.0 1.6 0.00 0.00 0.00 64 1009.7
20260505015643 17 303 1.6 1.6 0.00 0.00 0.00 63 1009.7
20260505015139 17 304 0.0 0.0 0.00 0.00 0.00 63 1009.5
20260505014636 17 241 4.8 8.0 0.00 0.00 0.00 62 1009.7
20260505014133 17 258 1.6 3.2 0.00 0.00 0.00 62 1009.6
20260505013631 17 288 1.6 1.6 0.00 0.00 0.00 62 1009.4
20260505013128 17 290 1.6 1.6 0.00 0.00 0.00 61 1009.5
20260505012626 17 201 1.6 3.2 0.00 0.00 0.00 61 1009.6
20260505012122 17 314 0.0 1.6 0.00 0.00 0.00 60 1009.3
20260505011618 17 282 1.6 3.2 0.00 0.00 0.00 60 1009.5
20260505011115 17 303 0.0 1.6 0.00 0.00 0.00 60 1009.2
20260505010611 17 292 0.0 1.6 0.00 0.00 0.00 59 1009.4
20260505010108 17 8 1.6 3.2 0.00 0.00 0.00 58 1009.2
20260505005604 17 336 1.6 1.6 0.00 0.00 0.00 57 1009.1
20260505005101 17 233 1.6 3.2 0.00 0.00 0.00 57 1009.4
20260505004558 17 253 6.4 8.0 0.00 0.00 0.00 56 1009.0
20260505004055 17 278 1.6 1.6 0.00 0.00 0.00 56 1009.3
20260505003552 17 305 1.6 3.2 0.00 0.00 0.00 55 1009.3
20260505003049 18 299 1.6 1.6 0.00 0.00 0.00 55 1009.3
20260505002544 18 315 0.0 1.6 0.00 0.00 0.00 55 1009.2
20260505002043 18 281 4.8 4.8 0.00 0.00 0.00 54 1009.0
20260505001540 18 304 1.6 3.2 0.00 0.00 0.00 54 1009.2
20260505001037 18 318 3.2 4.8 0.00 0.00 0.00 54 1009.0
20260505000535 18 176 3.2 4.8 0.00 0.00 0.00 54 1009.0
20260505000032 18 260 4.8 8.0 0.00 0.00 0.00 54 1009.2
20260504235529 18 182 3.2 4.8 0.00 0.00 0.00 53 1009.1
20260504235025 18 283 1.6 1.6 0.00 0.00 0.00 53 1009.2
20260504234522 19 303 1.6 3.2 0.00 0.00 0.00 52 1009.3
20260504234019 19 222 6.4 11.3 0.00 0.00 0.00 50 1009.2
20260504233514 20 238 3.2 3.2 0.00 0.00 0.00 49 1009.2
20260504233012 20 240 6.4 9.7 0.00 0.00 0.00 47 1009.2
20260504232509 20 152 3.2 4.8 0.00 0.00 0.00 46 1009.1
20260504232007 20 288 1.6 3.2 0.00 0.00 0.00 46 1009.1
20260504231503 21 226 4.8 8.0 0.00 0.00 0.00 44 1009.0
20260504230959 21 300 0.0 1.6 0.00 0.00 0.00 42 1009.1
20260504230455 21 296 1.6 1.6 0.00 0.00 0.00 42 1009.1
20260504225954 21 300 1.6 1.6 0.00 0.00 0.00 42 1009.2
20260504225451 21 304 1.6 1.6 0.00 0.00 0.00 41 1009.2
20260504224948 21 267 6.4 14.5 0.00 0.00 0.00 41 1009.0
20260504224444 21 260 8.0 9.7 0.00 0.00 0.00 40 1008.9
20260504223941 21 291 4.8 8.0 0.00 0.00 0.00 40 1008.9
20260504223437 22 328 3.2 3.2 0.00 0.00 0.00 39 1008.9
20260504222933 22 282 6.4 12.9 0.00 0.00 0.00 38 1009.2
20260504222431 22 353 4.8 9.7 0.00 0.00 0.00 38 1009.3
20260504221929 22 249 6.4 9.7 0.00 0.00 0.00 37 1009.0
20260504221425 22 212 4.8 8.0 0.00 0.00 0.00 36 1009.1
20260504220922 22 276 4.8 8.0 0.00 0.00 0.00 36 1009.1
20260504220419 22 49 6.4 8.0 0.00 0.00 0.00 36 1009.2
20260504215916 22 306 4.8 4.8 0.00 0.00 0.00 35 1009.2
20260504215413 22 242 4.8 4.8 0.00 0.00 0.00 35 1009.1
20260504214909 23 238 6.4 9.7 0.00 0.00 0.00 33 1009.1
20260504214406 22 263 8.0 11.3 0.00 0.00 0.00 35 1008.9
20260504213903 23 311 4.8 8.0 0.00 0.00 0.00 33 1009.2
20260504213358 23 316 3.2 3.2 0.00 0.00 0.00 34 1009.2
20260504212856 23 212 3.2 3.2 0.00 0.00 0.00 33 1009.3
20260504212352 23 29 3.2 4.8 0.00 0.00 0.00 33 1009.2
20260504211850 23 298 3.2 3.2 0.00 0.00 0.00 34 1009.1
20260504211346 23 251 4.8 8.0 0.00 0.00 0.00 33 1009.2
20260504210843 23 291 3.2 4.8 0.00 0.00 0.00 34 1009.2
20260504210340 23 151 3.2 4.8 0.00 0.00 0.00 33 1009.2
20260504205837 23 296 1.6 1.6 0.00 0.00 0.00 34 1009.3
20260504205335 23 234 1.6 1.6 0.00 0.00 0.00 34 1009.3
20260504204833 23 265 3.2 3.2 0.00 0.00 0.00 33 1009.5
20260504204331 23 306 0.0 1.6 0.00 0.00 0.00 34 1009.5
20260504203830 23 312 3.2 4.8 0.00 0.00 0.00 33 1009.4
20260504203327 24 280 3.2 4.8 0.00 0.00 0.00 32 1009.2
20260504202822 23 237 3.2 4.8 0.00 0.00 0.00 33 1009.5
20260504202320 23 307 3.2 4.8 0.00 0.00 0.00 34 1009.5
20260504201816 22 336 3.2 3.2 0.00 0.00 0.00 35 1009.4
20260504201314 22 171 4.8 9.7 0.00 0.00 0.00 36 1009.6
20260504200811 22 240 4.8 8.0 0.00 0.00 0.00 34 1009.7
20260504200308 23 328 6.4 11.3 0.00 0.00 0.00 33 1009.9
20260504195803 22 224 4.8 8.0 0.00 0.00 0.00 33 1010.0
20260504195259 22 298 4.8 8.0 0.00 0.00 0.00 35 1010.1
20260504194757 22 343 4.8 4.8 0.00 0.00 0.00 33 1010.1
20260504194253 22 211 3.2 4.8 0.00 0.00 0.00 33 1010.2
20260504193749 22 331 1.6 1.6 0.00 0.00 0.00 35 1010.1
20260504193247 22 265 8.0 12.9 0.00 0.00 0.00 33 1010.5
20260504192745 22 292 4.8 9.7 0.00 0.00 0.00 34 1010.6
20260504192243 22 311 6.4 8.0 0.00 0.00 0.00 35 1010.5
20260504191741 22 351 1.6 1.6 0.00 0.00 0.00 33 1010.5
20260504191238 22 326 3.2 4.8 0.00 0.00 0.00 35 1010.8
20260504190733 21 176 6.4 8.0 0.00 0.00 0.00 34 1010.7
20260504190230 22 194 9.7 14.5 0.00 0.00 0.00 34 1010.7
20260504185726 22 311 4.8 8.0 0.00 0.00 0.00 35 1010.8
20260504185223 22 223 4.8 4.8 0.00 0.00 0.00 35 1010.9
20260504184719 21 235 3.2 3.2 0.00 0.00 0.00 34 1011.0
20260504184215 22 292 4.8 4.8 0.00 0.00 0.00 35 1011.0
20260504183711 22 295 6.4 8.0 0.00 0.00 0.00 34 1011.0
20260504183208 22 323 1.6 1.6 0.00 0.00 0.00 35 1011.1
20260504182707 21 317 4.8 4.8 0.00 0.00 0.00 36 1011.0
20260504182203 22 252 9.7 12.9 0.00 0.00 0.00 35 1011.1
20260504181701 22 296 1.6 3.2 0.00 0.00 0.00 39 1011.0
20260504181158 22 221 6.4 9.7 0.00 0.00 0.00 34 1011.1
20260504180657 21 264 1.6 3.2 0.00 0.00 0.00 35 1011.1
20260504180155 21 199 4.8 4.8 0.00 0.00 0.00 37 1011.4
20260504175652 21 319 1.6 1.6 0.00 0.00 0.00 36 1011.3
20260504175149 21 294 6.4 12.9 0.00 0.00 0.00 38 1011.4
20260504174647 22 338 1.6 1.6 0.00 0.00 0.00 37 1011.4
20260504174144 22 318 3.2 3.2 0.00 0.00 0.00 38 1011.6
20260504173641 21 320 1.6 1.6 0.00 0.00 0.00 38 1011.5
20260504173138 22 288 3.2 3.2 0.00 0.00 0.00 37 1011.8
20260504172635 21 290 4.8 8.0 0.00 0.00 0.00 41 1011.6
20260504172131 21 300 0.0 1.6 0.00 0.00 0.00 37 1011.8
20260504171628 21 261 6.4 9.7 0.00 0.00 0.00 37 1011.8
20260504171125 21 311 1.6 1.6 0.00 0.00 0.00 40 1011.8
20260504170621 21 326 1.6 4.8 0.00 0.00 0.00 40 1011.9
20260504170119 21 312 1.6 3.2 0.00 0.00 0.00 42 1012.2
20260504151004 17 282 4.8 8.0 0.00 0.00 0.00 44 1013.4
20260504150502 17 343 1.6 3.2 0.00 0.00 0.00 45 1013.5
20260504140927 16 302 1.6 3.2 0.00 0.00 0.00 48 1013.6
20260504140424 16 94 1.6 3.2 0.00 0.00 0.00 48 1013.7
20260504130349 13 307 3.2 3.2 0.00 0.00 0.00 58 1014.1
20260504120312 11 300 1.6 4.8 0.00 0.00 0.00 66 1014.3
20260504110236 8 297 0.0 0.0 0.00 0.00 0.00 74 1014.3
20260504100154 5 301 0.0 0.0 0.00 0.00 0.00 82 1014.4
20260504090116 3 301 0.0 0.0 0.00 0.00 0.00 87 1014.6
20260504081547 4 301 0.0 0.0 0.00 0.00 0.00 82 1014.9
20260504081042 5 301 0.0 0.0 0.00 0.00 0.00 83 1014.6
20260504080539 4 301 0.0 0.0 0.00 0.00 0.00 82 1014.6